Regional Weather Roundup
Issued by NWS Cleveland, OH

Home | Current Version | Previous Version | Graphics & Text | Print | Product List | Glossary On
Versions: 1 2 3 4 5 6 7 8 9 10 11 12 13 14 15 16 17 18 19 20 21 22 23 24 25 26 27 28 29 30 31 32 33 34 35 36 37 38 39 40 41 42 43 44 45 46 47 48 49 50
000
ASUS41 KCLE 200610
RWRCLE
OHIO REGIONAL WEATHER ROUNDUP
NATIONAL WEATHER SERVICE CLEVELAND, OH
100 AM EST SAT JAN 20 2018

NOTE: "FAIR" INDICATES FEW OR NO CLOUDS BELOW 12,000 FEET WITH NO
SIGNIFICANT WEATHER AND/OR OBSTRUCTIONS TO VISIBILITY.

OHZ001>008-015>018-024>027-034-035-043-044-200700-
   NORTHWEST OHIO

CITY           SKY/WX    TMP DP  RH WIND       PRES   REMARKS
DEFIANCE       FAIR      34  23  64 SW15G23   29.86R WCI  24
FINDLAY        FAIR      34  22  61 SW18G28   29.87R WCI  23
TOLEDO EXPRESS FAIR      36  26  67 SW21G29   29.84R
TOLEDO EXEC    FAIR      34  24  67 SW17G26   29.85R WCI  23
LIMA           FAIR      33  24  69 SW17      29.89R WCI  22
$$

OHZ009>014-019>023-028>033-038-089-200700-
   NORTHEAST OHIO

CITY           SKY/WX    TMP DP  RH WIND       PRES   REMARKS
CLE-HOPKINS    FAIR      37  22  54 SW16      29.87S
CLE-LAKEFRONT  FAIR      37  21  52 S17G29    29.84S
CUY CO. ARPT   NOT AVBL
LORAIN-ELYRIA  FAIR      35  19  52 SW25G35   29.85S WCI  23
ASHTABULA      FAIR      34  20  56 S13       29.84S WCI  25
AKRON-CANTON   FAIR      32  19  58 SW18      29.89F WCI  20
WOOSTER        FAIR      33  20  58 SW16G24   29.89F WCI  23
MANSFIELD      FAIR      33  22  63 S23G30    29.88F WCI  21
YOUNGSTOWN     FAIR      34  20  56 SW16G22   29.87F WCI  24
$$

OHZ042-051>053-060>062-070>072-077>081-200700-
  SOUTHWEST OHIO

CITY           SKY/WX    TMP DP  RH WIND       PRES   REMARKS
CINC-COVINGTON FAIR      37  24  59 SW14      30.01S
CINC-LUNKEN    FAIR      33  22  63 S7        30.05S WCI  27
HAMILTON       FAIR      37  23  56 SW3       30.02F
DAYTON         MOCLDY    33  23  66 SW17G25   29.95F WCI  22
WRIGHT-PAT AFB PTCLDY    35  14  43 S18       29.96F WCI  24
DAYTON GENERAL FAIR      35  21  56 SW10      29.98S WCI  27
WILMINGTON     FAIR      33  22  63 SW16      29.99S WCI  23
$$

OHZ036-037-039>041-045>050-054>059-063>069-073>076-082>088-200700-
  CENTRAL AND SOUTHEAST OHIO

CITY           SKY/WX    TMP DP  RH WIND       PRES   REMARKS
COLUMBUS       FAIR      31  19  61 S7        29.98F WCI  24
OSU AIRPORT    FAIR      31  21  66 S10       29.96F WCI  22
BOLTON FIELD   FAIR      32  20  62 SW14      29.98F WCI  22
RICKENBACK AFB FAIR      31  20  63 S16       29.99S WCI  20
NEWARK         FAIR      35  20  54 S7        29.97F WCI  29
MARION         FAIR      30  20  66 S16       29.91F WCI  19
LANCASTER      FAIR      36  21  54 S10       30.00S
ZANESVILLE     FAIR      32  18  56 S9        29.99F WCI  24
NEW PHILLY     NOT AVBL
$$




USA.gov is the U.S. government's official web portal to all federal, state and local government web resources and services.